Flag for U.S.A. Weather past 2 weeks in Carson City, Nevada, U.S.A.

Now
60 °F

Broken clouds.


Feels Like: 60 °F
Forecast: 32 / 56 °F
Wind: 13 mph from North

Location: Reno Tahoe International Airport

Current Time: Dec 22, 2014 at 1:30:41 PM

Latest Report: Dec 22, 2014 at 12:55 PM


Visibility: 10 mi

Pressure: 30.24 "Hg

Humidity: 44%

Dew point: 38 °F

Location of Carson CityLocation

Historic Weather in Carson City — Graph

°F

Carson City temperature yesterday

Maximum temperature yesterday: 62 °F (at 11:55 AM)
Minimum temperature yesterday: 46 °F (at 11:55 PM)
Average temperature yesterday: 55 °F

Past Weeks' High & Low Weather Summary

 TemperatureHumidityPressure
High62 °F (Dec 11, 10:55 AM)100% (Dec 15, 9:55 AM)30.31 "Hg (Dec 15, 9:55 AM)
Low26 °F (Dec 14, 1:55 AM)21% (Dec 11, 6:55 AM)29.44 "Hg (Dec 11, 11:55 AM)
Average42 °F68%30.02 "Hg
* Reported Dec 7 11:55 AM — Dec 22 11:55 AM, Carson City, Weather by CustomWeather, © 2014

Note: Actual official high and low records may vary slightly from our data, if they occured in-between our weather recording intervals... More about our weather records

Advertising

Carson City weather history for previous 24 hours

 ConditionsComfort  
Time TempWeatherWind HumidityBarometerVisibility
11:55 AM
Dec 22
53 °FBroken clouds.No wind55%30.26 "Hg10 mi
10:55 AM50 °FScattered clouds.3 mph61%30.28 "Hg10 mi
9:55 AM46 °FBroken clouds.5 mph71%30.30 "Hg10 mi
8:55 AM39 °FScattered clouds.3 mph86%30.31 "Hg10 mi
7:55 AM34 °FPassing clouds.3 mph92%30.28 "Hg10 mi
6:55 AM35 °FPassing clouds.No wind92%30.24 "Hg10 mi
5:55 AM35 °FClear.No wind92%30.22 "Hg10 mi
4:55 AM37 °FClear.No wind89%30.22 "Hg10 mi
3:55 AM37 °FClear.3 mph89%30.22 "Hg10 mi
2:55 AM39 °FClear.No wind82%30.22 "Hg10 mi
1:55 AM40 °FClear.5 mph83%30.22 "Hg10 mi
12:55 AM43 °FClear.No wind79%30.22 "Hg10 mi
11:55 PM
Dec 21
46 °FClear.No wind73%30.23 "Hg10 mi
10:55 PM49 °FPassing clouds.6 mph69%30.22 "Hg10 mi
9:55 PM52 °FPassing clouds.3 mph61%30.22 "Hg10 mi
8:55 PM53 °FPassing clouds.5 mph59%30.23 "Hg10 mi
7:55 PM54 °FPassing clouds.3 mph57%30.21 "Hg10 mi
6:55 PM55 °FPassing clouds.5 mph55%30.19 "Hg10 mi
5:55 PM57 °FPassing clouds.3 mph51%30.18 "Hg10 mi
4:55 PM58 °FPassing clouds.5 mph51%30.15 "Hg10 mi
3:55 PM60 °FMostly cloudy.9 mph47%30.14 "Hg10 mi
2:55 PM61 °FCloudy.13 mph46%30.12 "Hg10 mi
1:55 PM62 °FMostly cloudy.14 mph43%30.11 "Hg10 mi
Weather by CustomWeather, © 2014

See weather overviewHow to use our weather pages